Dewpoint
73 73 74 73 73 72 70 66 51 53 52 48 49 50 50 56 57 54 54 56 54 59 61 60 57 55 56 55 55 56 59 55 55 48 46 52 70 71 72 72 72 73 73 74 74 74 75 75 75 75 74 75 74 74 74 74 73 74 73 74 75 75 76 75 75 75 75 75 75 75 75 75 75 75 75 75 75 75 75 75 75 75 75 75 75 74 74 75 75 75 75 76 75 75 75 76 76
73 73 73 73 71 67 63 61 51 49 49 48 49 52 52 56 55 53 52 55 56 56 60 58 56 60 58 58 59 57 56 63 61 60 66 69 71 71 72 72 73 73 74 74 74 74 74 75 75 75 75 75 74 75 74 74 73 74 74 74 74 74 75 75 75 74 75 75 75 75 76 75 74 75 75 75 75 75 75 74 74 74 74 75 75 75 75 75 74 75 75 75 75 75 75 76 76
71 71 73 72 70 66 63 59 49 47 46 45 48 52 55 52 53 55 56 58 59 58 59 60 59 60 57 57 54 57 53 63 66 66 67 70 68 70 72 72 73 73 74 74 74 74 74 75 75 74 74 74 75 75 74 74 74 73 74 73 73 74 74 75 75 75 74 75 75 75 76 76 75 75 75 75 74 74 74 74 74 75 74 74 75 75 75 75 75 75 75 75 75 75 75 75 75
72 73 71 70 64 64 58 54 50 48 47 46 47 52 55 55 54 56 59 60 59 58 57 56 56 57 56 56 57 60 60 61 65 66 66 68 67 71 72 73 74 74 74 74 74 74 74 75 75 74 74 74 74 74 74 74 74 73 74 74 74 74 74 74 74 75 75 75 75 75 75 75 75 75 75 75 75 74 74 73 74 75 75 74 74 74 75 75 75 75 75 75 75 75 74 75 75
74 76 74 69 62 57 56 52 51 49 47 48 47 51 56 58 56 57 58 58 58 58 58 57 56 58 60 57 58 55 56 64 66 66 67 70 72 72 72 73 73 73 73 73 74 74 74 75 74 74 74 74 75 75 74 74 74 73 74 74 74 74 75 75 74 75 75 75 75 75 75 75 75 75 75 75 75 73 73 74 75 74 74 74 74 75 74 75 75 75 75 75 75 75 75 75 74
74 74 73 70 62 63 57 51 50 51 53 53 51 53 57 58 58 58 57 59 58 57 56 57 55 56 58 60 61 60 62 60 64 66 68 70 72 72 73 73 73 73 73 73 73 73 74 75 74 74 74 75 75 75 74 74 74 73 74 74 74 74 74 74 75 75 75 75 75 75 76 76 75 75 75 75 75 74 73 72 74 74 74 74 74 74 74 75 75 75 75 76 74 75 75 74 74
69 70 69 65 62 63 53 51 52 53 55 56 55 56 58 58 60 58 56 56 57 56 56 56 57 57 57 60 62 63 64 65 65 67 70 71 72 72 72 72 72 72 73 73 73 73 74 74 74 75 75 75 75 75 74 74 74 74 73 73 73 74 74 74 75 75 75 75 75 75 75 75 75 75 75 75 74 73 73 73 74 74 73 72 73 74 74 75 74 75 75 75 75 75 75 75 75
72 67 65 58 57 58 54 53 53 54 54 57 58 59 60 59 61 58 55 55 54 55 56 57 59 59 58 62 60 64 66 67 69 71 71 71 71 72 72 72 72 72 72 72 73 73 74 74 74 74 74 75 74 74 74 75 74 74 74 72 73 74 73 74 74 75 75 75 74 75 75 75 75 75 75 74 75 74 74 74 74 73 73 73 73 73 73 75 75 75 75 75 75 74 75 75 74
69 68 67 58 55 56 54 53 53 57 56 59 59 62 64 61 61 59 56 57 56 56 57 57 58 55 59 61 61 64 67 70 70 72 71 71 71 71 72 72 72 72 72 72 72 73 75 74 74 74 75 75 74 74 74 75 74 74 73 72 73 74 74 74 75 75 75 75 74 75 75 75 75 75 75 74 74 75 75 74 74 74 73 73 73 74 74 75 75 75 75 75 75 74 74 74 74
66 66 60 57 56 52 53 51 51 54 56 58 59 60 61 62 60 59 57 56 56 57 58 61 58 57 60 60 61 63 67 70 70 70 71 71 70 71 71 72 72 72 72 72 72 73 74 74 74 75 74 74 74 74 74 74 74 74 73 73 72 73 74 74 75 75 75 75 74 75 75 75 75 75 75 74 74 74 74 73 73 74 74 73 74 74 74 74 74 74 74 74 74 74 74 74 74
61 66 63 56 52 51 50 52 54 55 56 59 60 63 62 63 60 58 58 58 59 58 59 59 59 59 60 60 61 66 69 69 69 69 70 70 70 71 71 72 72 72 72 72 72 74 74 75 74 74 74 74 74 74 74 74 74 74 73 73 73 73 74 74 74 74 75 75 74 74 75 75 75 75 74 74 75 74 74 74 73 74 74 75 74 74 74 75 75 75 75 74 74 74 74 74 74
59 61 62 55 53 51 53 53 54 55 57 58 57 62 62 63 61 57 57 56 58 58 58 59 58 60 59 60 62 67 68 68 69 70 70 70 71 71 71 72 72 72 72 72 73 74 74 74 75 74 73 74 74 74 74 73 73 74 74 73 73 73 73 74 75 74 74 74 74 74 75 75 75 74 74 74 74 74 74 74 73 74 75 75 75 75 75 75 75 75 75 75 75 75 74 74 74
61 64 59 56 55 56 56 53 55 57 55 57 58 61 64 63 58 58 58 58 58 57 56 59 60 60 58 59 63 66 66 68 69 69 69 70 71 71 71 71 72 72 73 74 74 74 73 73 73 73 74 74 74 74 73 73 74 73 74 73 73 73 72 73 74 73 74 74 74 74 75 74 74 74 74 74 74 74 73 74 74 75 75 76 76 76 76 76 76 76 76 75 75 75 75 75 75
61 63 61 54 58 56 54 54 55 53 53 57 62 63 63 61 61 62 58 57 57 56 57 60 60 61 60 62 63 64 65 68 69 69 70 71 71 71 71 71 72 73 74 74 73 74 73 73 72 72 72 72 72 73 73 73 74 73 73 73 73 73 73 73 73 73 73 73 74 74 74 74 74 74 74 74 74 74 74 73 74 76 75 76 76 76 76 76 76 76 75 75 75 75 75 75 76
61 65 61 57 55 56 57 54 54 53 53 59 62 62 62 64 64 63 59 57 56 60 59 60 60 57 56 60 61 64 65 68 69 70 71 71 71 71 71 72 72 73 73 74 74 74 73 72 72 71 71 71 71 72 72 74 73 74 74 74 73 72 73 73 73 74 74 74 74 74 75 74 74 74 74 74 73 74 74 74 75 75 76 76 76 75 75 75 75 75 75 75 75 75 75 75 76
66 63 59 53 53 55 56 57 58 55 54 62 63 63 61 62 65 60 61 59 58 59 61 58 60 54 59 60 61 64 66 69 70 70 70 70 71 71 72 72 72 73 73 73 73 73 73 71 71 71 71 71 72 72 72 72 74 73 74 73 74 73 73 72 73 74 74 74 74 74 74 75 74 74 74 74 73 74 75 75 75 75 76 75 76 75 75 75 75 75 75 76 76 75 76 76 76
67 62 54 55 54 56 56 57 57 53 59 61 62 61 59 59 64 65 67 63 58 57 59 58 59 60 61 61 63 65 67 70 70 70 70 71 71 71 71 72 72 72 73 73 73 73 73 71 71 72 72 72 71 71 72 72 73 73 72 72 72 73 72 72 72 73 74 74 74 74 77 74 74 75 75 75 75 76 75 75 75 75 75 76 75 76 76 76 75 75 76 76 76 76 76 76 77
61 57 56 53 56 56 58 58 59 60 57 60 61 62 59 57 61 62 60 58 59 58 57 59 60 61 63 64 65 66 68 69 70 70 70 70 70 70 70 71 71 70 72 72 72 72 72 72 71 72 72 71 71 71 72 73 73 72 71 72 74 73 73 73 73 74 74 72 75 76 75 75 74 74 76 77 76 76 77 75 75 75 75 75 76 76 76 75 75 75 76 76 76 76 76 77 77
59 57 55 51 58 59 61 62 62 60 60 60 62 62 60 58 60 61 56 56 56 56 58 60 61 62 64 65 66 67 68 69 69 69 69 69 69 69 69 70 70 71 71 72 72 72 72 72 72 71 71 71 70 71 72 73 72 71 71 72 73 72 73 73 72 73 72 74 75 75 75 74 75 75 76 76 76 75 76 76 75 75 75 75 75 75 76 76 76 76 75 75 76 77 76 76 76
61 55 52 54 57 62 64 65 64 66 62 60 61 61 60 60 63 65 56 55 55 55 58 59 60 62 64 66 67 67 68 68 69 69 69 69 69 69 69 69 69 69 70 71 71 72 72 72 71 71 71 71 71 71 71 72 72 72 72 72 72 73 73 73 73 74 74 74 74 74 74 75 74 73 77 77 77 75 75 77 76 77 77 76 76 76 76 76 75 76 75 75 75 74 74 74 74
59 56 54 55 60 57 61 65 65 65 62 61 61 61 59 60 62 62 57 54 54 56 58 57 60 62 64 66 67 67 68 68 68 69 69 69 69 69 69 69 69 70 70 71 72 71 72 71 72 72 71 71 71 72 71 72 72 71 72 72 72 73 73 73 74 74 74 74 74 74 74 75 74 73 73 73 73 74 73 73 73 74 74 73 76 74 74 73 74 73 73 73 72 73 72 73 73
59 56 60 60 62 58 63 63 64 65 64 62 60 58 59 63 63 61 56 53 52 54 57 58 61 63 65 66 67 67 68 68 68 68 69 69 69 69 69 69 70 70 71 71 71 71 71 72 71 72 72 72 72 72 72 72 72 71 71 71 72 72 73 73 73 74 74 73 74 75 74 73 73 73 73 72 72 72 73 73 73 73 73 73 74 73 73 73 73 72 73 73 72 72 72 72 72
55 58 63 64 63 61 63 64 64 65 62 60 59 61 63 61 61 63 56 55 56 59 59 60 62 64 66 67 67 67 67 67 68 68 68 69 69 69 69 69 69 69 70 70 71 71 71 71 71 71 71 72 72 72 72 72 71 71 71 72 72 72 73 73 73 73 73 73 73 75 73 72 72 72 72 71 72 72 72 72 72 72 72 72 73 73 72 73 73 73 73 73 73 72 72 72 72
57 56 63 63 64 63 64 64 65 64 62 61 64 66 60 61 57 61 57 58 60 57 60 62 63 65 66 66 67 67 67 67 67 68 68 68 68 69 69 69 69 70 70 70 70 71 72 71 71 71 71 71 72 72 72 71 72 72 73 74 73 74 73 73 72 73 73 73 74 74 74 72 72 71 71 71 71 70 72 72 72 72 72 72 73 74 73 74 74 73 73 72 72 72 71 72 71
60 59 62 63 64 64 64 64 64 65 64 65 65 62 60 62 59 62 61 61 56 59 62 63 64 65 65 66 66 66 67 67 67 67 68 68 68 69 69 69 70 70 69 69 69 71 71 71 71 71 71 71 71 72 71 71 71 72 74 73 72 74 72 72 72 73 73 74 74 75 75 73 70 70 70 71 71 71 71 71 72 72 73 73 74 74 74 73 72 71 72 72 72 72 72 71 71
62 62 63 63 62 63 64 63 63 64 64 64 61 60 62 64 64 58 60 60 56 62 62 63 64 64 64 65 65 66 66 66 66 66 66 68 68 69 69 69 69 69 69 69 70 71 71 71 71 71 71 71 71 71 71 71 71 72 73 73 72 74 72 73 73 72 72 73 73 74 74 73 72 70 70 70 71 71 71 71 72 72 73 73 73 72 72 72 71 72 72 72 71 71 71 71 73
63 63 63 62 62 62 63 62 61 63 63 62 59 60 61 64 60 53 60 59 59 62 62 63 63 63 64 64 65 65 65 65 65 65 66 67 68 68 68 69 69 69 70 70 70 71 71 71 71 71 71 72 71 71 71 71 72 72 73 73 73 73 72 73 73 72 72 72 73 74 74 74 74 70 70 70 71 71 71 72 72 72 72 71 72 71 71 72 73 73 72 72 72 72 72 71 72
62 62 62 62 62 62 63 62 61 61 60 62 62 60 62 63 61 56 58 59 60 61 61 62 62 63 63 63 63 64 64 64 65 65 65 67 68 68 68 68 69 69 69 70 70 71 71 71 71 71 71 72 72 71 72 71 72 72 73 73 73 73 73 72 72 72 73 72 73 73 73 73 75 72 70 70 71 71 71 72 72 72 72 72 73 72 72 74 75 75 75 75 74 73 73 71 71
62 62 60 61 61 60 61 60 61 62 60 63 63 58 57 58 58 62 63 60 59 60 60 61 61 62 62 62 62 63 63 64 65 65 65 66 68 68 68 69 69 69 70 70 71 71 71 71 71 71 72 72 72 72 72 72 72 72 73 73 73 74 73 72 72 72 72 72 72 73 73 73 75 73 72 71 73 73 72 72 72 73 73 73 73 74 75 75 73 73 73 74 72 74 71 70 68
62 61 60 59 57 58 61 60 61 61 61 63 62 51 53 57 61 63 64 58 58 58 58 59 59 60 60 60 61 62 63 64 64 65 65 66 67 68 68 68 69 69 70 70 71 71 71 71 71 72 72 72 72 72 72 72 72 72 73 73 74 74 73 72 73 72 72 73 73 73 73 73 74 73 73 72 73 73 73 73 73 73 73 74 74 76 74 74 72 72 72 73 73 73 71 71 68
57 59 56 53 49 50 60 58 60 59 64 65 60 51 52 56 59 63 66 58 56 55 56 56 56 56 56 59 61 62 63 64 64 64 64 66 67 67 68 68 69 70 70 70 70 71 71 71 71 72 72 72 72 72 72 72 72 72 73 72 73 73 73 72 71 71 71 72 73 74 74 74 75 74 74 73 73 73 73 73 72 72 73 75 75 75 74 73 72 72 73 73 71 71 71 74 67
55 50 47 50 49 51 60 62 60 58 61 65 59 50 53 56 56 62 67 58 56 54 55 54 54 54 56 58 60 61 62 63 64 64 64 66 67 67 67 68 69 70 70 70 71 71 70 70 72 71 72 72 72 72 72 72 72 72 72 73 72 72 73 72 72 71 72 74 75 74 74 75 76 74 74 74 73 73 72 73 72 73 74 76 75 75 75 73 73 72 73 73 72 70 72 70 69
51 49 47 50 53 55 57 61 61 62 62 62 59 54 55 54 57 61 67 59 57 54 54 54 54 55 56 58 60 60 62 62 63 64 64 65 67 67 67 68 69 70 70 70 70 70 69 70 71 71 72 71 71 72 71 71 71 71 71 73 71 72 71 71 71 72 74 75 75 74 75 76 75 74 75 75 73 74 74 74 73 74 76 75 74 73 73 74 74 72 73 74 73 72 69 68 67
47 50 47 51 55 55 53 57 61 61 60 57 60 55 54 56 60 63 64 59 57 54 54 53 55 56 56 58 59 60 61 62 62 63 64 65 66 67 67 70 69 70 70 70 70 69 69 70 70 71 72 71 71 71 71 70 71 71 71 71 73 71 70 70 70 72 74 74 75 75 75 77 76 76 76 76 74 74 74 74 75 75 76 75 74 73 73 73 75 74 73 74 75 72 70 69 67
45 46 47 48 55 56 55 53 56 60 60 56 58 56 56 57 59 62 64 60 57 54 54 54 56 56 57 57 58 59 60 61 62 63 64 65 66 67 67 69 69 69 70 70 70 70 69 70 71 72 71 71 71 71 71 71 71 71 70 70 71 71 70 70 71 72 74 74 75 75 76 77 78 76 77 77 75 76 76 76 75 75 77 75 73 72 72 74 75 74 74 73 72 74 70 69 69
48 48 49 50 50 52 53 57 62 60 57 55 56 53 54 55 58 61 63 64 55 54 55 56 57 56 57 57 58 59 60 60 62 62 64 65 66 67 67 68 69 69 69 70 70 69 69 70 71 71 71 70 71 71 72 71 70 70 69 69 69 71 70 71 71 72 73 74 75 76 76 77 78 77 76 76 75 78 76 75 75 76 76 74 72 72 74 74 75 75 73 75 70 71 72 71 70
49 51 51 50 50 53 58 59 62 61 56 55 55 56 55 56 57 59 62 63 58 56 56 56 57 57 57 57 58 59 59 60 63 63 64 65 66 67 67 68 68 69 69 69 69 69 69 70 70 70 70 70 71 70 70 69 69 69 68 68 68 68 69 69 71 72 73 74 75 76 76 77 77 77 78 77 75 78 77 76 75 76 76 76 75 75 76 76 76 75 75 74 71 70 69 71 70
46 49 48 49 50 49 54 58 62 61 56 54 56 56 56 57 58 59 62 62 60 57 57 57 57 58 58 58 58 59 60 65 64 63 64 65 66 67 67 67 69 68 68 69 69 69 69 70 70 70 70 70 70 70 70 69 69 68 68 68 67 68 70 71 70 72 73 73 75 76 77 77 76 77 79 77 77 76 76 76 76 75 75 74 77 75 76 76 73 73 72 70 69 70 70 71 71
34 38 48 48 50 53 58 60 61 61 57 52 56 55 55 56 56 58 60 62 62 62 59 59 58 58 58 58 59 60 62 62 62 62 64 65 66 67 67 67 68 68 68 68 68 69 69 69 70 70 70 70 70 70 70 69 69 70 68 68 68 68 69 71 70 72 74 73 74 76 77 76 76 77 78 78 76 77 76 76 76 76 75 78 74 72 73 73 73 72 72 69 68 69 72 72 73
32 47 46 41 49 49 45 53 60 60 55 52 55 55 54 55 56 57 59 62 62 62 63 63 62 59 58 58 59 60 61 61 61 62 63 64 65 66 67 67 67 67 68 68 68 68 68 70 69 69 69 69 69 70 71 69 69 69 69 69 69 69 70 72 72 73 74 74 74 75 76 76 76 76 77 78 78 77 76 76 76 75 76 76 73 73 73 73 73 73 71 71 69 67 68 70 74
34 40 47 48 51 51 47 54 59 59 58 57 54 48 48 51 54 55 57 61 61 62 64 63 63 64 61 60 60 61 61 61 61 61 62 64 65 66 66 67 67 67 67 67 68 68 68 68 69 69 69 69 69 71 71 69 71 70 71 71 72 71 71 71 71 72 73 74 74 75 75 76 76 76 76 77 79 76 76 76 75 76 75 75 74 73 73 74 74 73 73 72 69 66 68 71 72
29 42 45 46 52 54 58 59 56 52 51 55 51 39 40 45 51 54 54 59 60 60 62 62 62 63 62 59 59 60 61 61 61 61 62 63 64 65 66 67 67 67 67 67 67 67 67 68 68 69 69 69 68 69 70 70 71 69 69 68 68 69 69 69 69 70 71 73 73 74 75 76 75 76 76 76 77 77 76 75 76 76 75 75 77 75 75 73 73 72 74 72 73 73 70 70 70
33 36 44 50 53 56 57 56 50 45 44 50 53 41 35 43 46 51 53 56 58 59 61 62 62 62 63 59 59 60 60 61 61 61 61 63 64 65 65 66 66 66 66 67 67 67 67 67 68 68 68 69 69 69 70 71 70 69 68 67 67 67 68 68 70 70 71 72 74 74 75 76 76 75 76 75 76 78 77 76 76 76 76 75 77 76 75 73 72 72 77 73 74 76 72 71 70
25 21 47 53 55 56 56 53 49 47 52 53 52 45 40 41 44 52 54 54 55 57 59 61 62 62 63 61 59 60 60 60 61 61 61 62 64 64 65 65 66 66 66 66 66 66 67 67 67 68 68 70 69 69 70 70 69 69 68 68 68 67 67 68 69 70 71 73 73 74 74 75 75 75 75 75 75 76 78 76 76 76 76 75 77 77 76 75 74 74 77 76 77 75 72 71 71
9 42 51 53 54 55 55 50 47 47 46 41 47 50 43 41 43 50 54 52 53 55 57 59 61 62 63 64 61 59 60 60 60 61 61 62 63 64 65 65 65 66 65 65 66 66 66 67 68 68 68 69 69 70 70 70 70 69 68 68 68 69 68 68 71 73 72 74 73 73 74 74 74 75 75 75 75 75 78 77 76 76 76 76 78 78 76 75 74 74 74 75 74 74 74 73 73
46 52 52 52 50 50 50 47 45 42 39 36 44 48 41 40 42 49 52 51 51 53 55 57 59 61 63 64 63 61 60 60 60 61 61 62 63 64 64 65 65 65 65 65 65 65 66 67 67 67 67 68 69 70 71 70 69 70 68 68 68 68 70 70 71 72 71 73 72 72 73 73 73 74 74 75 75 75 76 77 77 76 76 76 78 78 76 75 74 74 74 75 76 75 75 77 75
48 50 49 46 44 44 43 40 42 40 35 38 40 48 40 33 37 47 48 49 52 52 54 56 58 60 62 63 64 62 60 60 60 60 61 61 63 64 64 64 65 65 64 64 64 65 65 66 67 67 67 68 69 70 70 70 69 70 68 68 68 68 69 69 69 70 71 72 71 71 72 72 73 73 74 75 75 75 76 77 77 76 76 78 78 78 77 75 73 73 73 75 76 75 74 75 75
41 41 46 45 42 39 40 36 39 35 34 36 38 47 42 34 37 44 49 53 55 54 54 54 56 59 60 62 64 63 61 60 60 60 60 61 63 63 64 64 64 64 64 64 64 65 66 66 66 67 67 67 68 70 70 70 69 69 69 69 69 69 69 69 69 69 70 71 71 71 72 72 72 73 74 74 75 75 76 76 77 77 77 77 76 76 76 75 74 74 74 74 74 75 75 76 75
41 42 34 31 22 37 38 31 36 33 33 39 46 48 44 43 38 46 47 50 52 55 56 56 56 57 60 62 63 64 62 60 60 60 60 61 62 63 63 64 65 64 64 63 63 64 65 66 66 66 66 67 68 69 70 70 70 70 69 69 69 70 69 70 69 69 70 70 71 71 71 71 72 72 73 73 74 75 76 76 75 76 76 77 77 76 76 76 76 75 74 73 74 75 75 76 75
38 39 23 25 26 22 29 27 29 27 30 39 45 46 41 43 45 47 47 51 54 55 57 58 58 57 59 61 63 63 63 61 60 60 60 60 61 62 63 64 64 64 63 63 63 65 65 65 66 66 66 67 68 69 70 70 70 70 70 69 69 70 70 70 69 69 69 70 71 71 71 71 71 72 72 73 73 74 75 76 76 76 76 76 77 76 76 76 76 75 74 74 73 75 76 76 75
15 18 17 22 23 21 19 22 25 25 30 41 45 40 39 38 44 50 50 53 56 58 59 60 60 60 59 60 62 63 63 61 60 60 60 60 61 62 63 64 64 63 63 63 63 65 66 66 66 67 66 67 67 68 70 70 70 70 70 70 70 70 70 70 70 70 70 70 70 71 71 71 71 72 72 73 74 74 75 76 76 76 76 76 76 76 76 77 77 78 77 76 75 75 75 76 75
27 20 22 18 21 27 16 24 29 29 35 35 40 37 41 41 47 53 55 55 56 58 58 61 60 62 62 62 62 63 63 62 61 61 60 60 61 62 63 64 64 64 64 64 63 65 66 66 66 66 66 66 67 68 69 70 70 70 71 71 71 71 72 71 71 72 71 70 71 71 71 72 72 72 73 73 73 74 74 75 76 76 76 75 75 76 76 76 76 76 76 76 75 76 76 75 74
27 28 26 29 32 38 39 42 35 33 29 28 40 40 43 45 47 50 54 54 55 56 57 59 59 61 62 62 62 63 63 63 61 61 61 61 61 62 63 63 63 64 63 63 64 65 66 66 66 66 66 66 66 68 68 70 70 70 71 71 71 71 71 70 70 70 70 71 71 71 71 71 72 72 72 74 73 74 74 74 74 74 75 76 75 76 76 76 76 75 75 75 75 75 76 76 75
30 28 29 36 37 33 29 25 29 29 25 27 38 39 40 37 38 50 53 54 54 55 56 58 58 60 61 61 62 63 63 63 63 63 63 62 61 62 63 63 64 64 63 64 65 65 66 66 66 66 66 66 66 67 67 68 70 70 70 70 71 71 71 71 70 70 70 71 72 72 72 72 72 72 73 72 74 73 74 75 74 74 74 75 75 75 75 76 76 75 75 75 75 75 75 76 76
25 30 36 29 29 27 31 27 23 23 23 26 31 38 42 39 40 47 50 53 53 55 56 56 58 59 59 60 62 62 63 63 62 63 64 64 63 62 63 64 64 65 65 64 64 65 66 66 66 66 66 66 66 66 66 68 69 69 70 70 70 71 72 72 72 72 72 71 71 71 72 72 72 73 74 74 74 73 74 74 75 74 74 74 75 75 75 76 76 75 75 75 75 75 75 75 75
33 33 31 38 38 33 30 28 30 28 25 28 27 35 33 43 43 50 51 53 54 55 55 56 57 59 60 60 61 62 62 63 64 64 65 66 67 67 67 66 66 67 65 65 65 64 65 65 66 66 67 67 67 66 67 67 68 68 69 70 70 71 72 72 72 72 72 71 71 71 72 72 72 73 73 73 73 73 73 73 73 73 73 73 74 74 74 75 75 75 75 74 75 75 75 75 75
31 30 30 33 36 39 37 40 33 28 29 28 27 28 34 38 44 52 52 54 55 56 56 56 57 58 60 61 61 62 63 63 64 64 64 65 66 66 66 66 67 66 65 65 65 64 65 65 66 67 66 66 66 67 67 67 68 68 69 69 69 70 70 71 72 72 72 72 72 73 72 72 73 73 73 73 73 73 73 73 73 74 73 74 75 75 74 74 74 74 73 73 74 74 75 75 75
31 31 31 34 33 32 28 30 37 37 31 27 28 28 33 38 53 54 54 55 57 57 57 57 58 59 59 60 61 63 63 63 64 64 65 66 66 66 66 66 66 64 65 64 64 65 65 65 65 66 66 66 66 67 68 68 68 68 68 68 69 69 70 71 71 72 72 72 72 73 73 73 72 72 73 72 73 73 73 72 72 73 74 73 74 74 74 74 74 73 73 72 72 74 74 74 75